Regional Weather Roundup
Issued by NWS

Home | Current Version | Previous Version | Text Only | Print | Product List | Glossary Off
Versions: 1 2 3 4 5 6 7 8 9 10 11 12 13 14 15 16 17 18 19 20 21 22 23 24 25 26 27 28 29 30 31 32 33 34 35 36 37 38 39 40 41 42 43 44 45 46 47 48 49 50

000
ASUS45 KSLC 240010
RWRUT

UTAH REGIONAL WEATHER ROUNDUP
NATIONAL WEATHER SERVICE SALT LAKE CITY UT
600 PM MDT FRI JUN 23 2017

UTZ001>011-023>025-240100-

NORTHERN UTAH

CITY           SKY/WX    TMP DP  RH WIND       PRES   REMARKS
BRIGHAM CITY   SUNNY     82  27  13 SW3       30.12F
HILL AFB       SUNNY     81  31  16 NW5       30.15F
LOGAN          SUNNY     82  34  17 CALM      30.13S
OGDEN          SUNNY     82  35  18 NW8       30.12F
SALT LAKE CITY SUNNY     86  28  12 NW6       30.11F
TOOELE VALLEY  SUNNY     82  32  16 N8        30.13F
WENDOVER         N/A     86  24  10 SE10      30.11F
HEBER CITY     SUNNY     84  27  12 N10       30.16S
WEST JORDAN    SUNNY     82  44  26 N12       30.15F

$$

UTZ011>015-024>027-240100-

CENTRAL/NORTHEAST UTAH

CITY           SKY/WX    TMP DP  RH WIND       PRES   REMARKS
PROVO AIRPORT  SUNNY     84  36  18 NW16      30.12F
MOAB/CANYONLAN SUNNY     95  15   5 VRB5      29.97F
DELTA          SUNNY     88  19   8 NW9G17    30.10F
PRICE          SUNNY     87  22   9 NW12G21   30.13S
RICHFIELD      SUNNY     86  25  10 NW8G15    30.13S
ROOSEVELT      SUNNY     88  30  12 E6        30.08F
VERNAL         SUNNY     87  35  15 E5        30.08F

$$

UTZ013>016-019>022-027-240100-

SOUTHERN UTAH

CITY           SKY/WX    TMP DP  RH WIND       PRES   REMARKS
BRYCE CANYON   MOSUNNY   84  17   8 W20G25    30.28S
CEDAR CITY     SUNNY     93  25   8 N14       30.10F
MILFORD        SUNNY     93  18   6 NE20G25   30.07F
ST GEORGE      CLEAR    108  31   7 N10       29.82F HX 100
HANKSVILLE     SUNNY     99  19   6 N9G22     29.98S HX  91
KANAB          SUNNY     99  27   8 W12G18    30.05S HX  92
BLANDING       SUNNY     90  29  11 N8G16     30.14F

$$

REGIONAL REPORTS     COLORADO/ARIZONA

CITY           SKY/WX    TMP DP  RH WIND       PRES   REMARKS
CRAIG, CO      SUNNY     81  24  12 NW8       30.18F
GRAND JUNCTION SUNNY     93  17   6 W13       30.00F
RIFLE, CO      SUNNY     88  24  10 N10G22    30.07F
MONTROSE, CO   SUNNY     88  20   8 N16       30.09S
CORTEZ, CO     SUNNY     92  13   5 N20G30    30.08S
COLORADO CITY    N/A    100  32   9 W5G21     30.04F HX  94
PAGE, AZ       MOSUNNY  102  29   7 VRB7      29.92S HX  95
GRAND CANYON   MOSUNNY   93  21   7 VRB6G20   30.18F
KINGMAN, AZ    SUNNY    106  35   8 W12G20    29.90F HX  99
FLAGSTAFF, AZ  PTSUNNY   88  19   8 VRB7      30.20S

$$

REGIONAL REPORTS    NEVADA/IDAHO/WYOMING

CITY           SKY/WX    TMP DP  RH WIND       PRES   REMARKS
LAS VEGAS, NV  MOSUNNY  110  17   4 CALM      29.76F HX 101
ELY, NY        SUNNY     91  35  13 NW14G24   30.18F
ELKO, NV       SUNNY     88  23   9 W13G20    30.15F
POCATELLO, ID  SUNNY     77  30  17 VRB3      30.18F
BURLEY, ID     SUNNY     77  34  21 W12       30.15F
FORT BRIDGER,    N/A     78  19  11 NW22      30.29S
EVANSTON, WY   SUNNY     74  26  16 NW13G21   30.28S
ROCK SPRINGS,  SUNNY     76  23  14 W17G28    30.21F
KEMMERER, WY     N/A    N/A N/A N/A NW14G22   30.29R

$$



USA.gov is the U.S. government's official web portal to all federal, state and local government web resources and services.